TimeEDT,TemperatureF,Dew PointF,Humidity,Sea Level PressureIn,VisibilityMPH,Wind Direction,Wind SpeedMPH,Gust SpeedMPH,PrecipitationIn,Events,Conditions,WindDirDegrees,DateUTC
12:03 AM,59.0,59.0,100,30.09,0.8,Calm,Calm,-,N/A,,Clear,0,2013-09-28 04:03:00
12:08 AM,59.0,57.2,94,30.09,1.5,Calm,Calm,-,N/A,,Clear,0,2013-09-28 04:08:00
12:13 AM,57.2,57.2,100,30.09,2.0,Calm,Calm,-,N/A,,Clear,0,2013-09-28 04:13:00
12:18 AM,59.0,57.2,94,30.09,1.8,Calm,Calm,-,N/A,,Clear,0,2013-09-28 04:18:00
12:28 AM,57.2,57.2,100,30.10,2.0,Calm,Calm,-,N/A,,Clear,0,2013-09-28 04:28:00
12:33 AM,57.2,57.2,100,30.09,0.8,Calm,Calm,-,N/A,,Clear,0,2013-09-28 04:33:00
12:38 AM,57.2,57.2,100,30.10,0.5,Calm,Calm,-,N/A,Fog,Fog,0,2013-09-28 04:38:00
12:43 AM,57.2,57.2,100,30.10,0.2,East,1.2,-,N/A,Fog,Fog,100,2013-09-28 04:43:00
12:48 AM,57.2,57.2,100,30.09,0.5,East,1.2,-,N/A,Fog,Fog,90,2013-09-28 04:48:00
12:58 AM,57.2,57.0,99,30.10,0.5,Calm,Calm,-,N/A,Fog,Fog,0,2013-09-28 04:58:00
1:03 AM,57.2,57.2,100,30.09,0.8,Calm,Calm,-,N/A,,Clear,0,2013-09-28 05:03:00
1:23 AM,55.4,55.4,100,30.09,1.0,West,2.3,-,N/A,,Clear,260,2013-09-28 05:23:00
1:28 AM,55.4,55.4,100,30.09,1.5,West,2.3,-,N/A,,Clear,280,2013-09-28 05:28:00
1:33 AM,57.2,55.4,94,30.09,2.0,West,3.5,-,N/A,,Clear,280,2013-09-28 05:33:00
1:43 AM,55.4,55.4,100,30.09,1.5,West,4.6,-,N/A,,Clear,280,2013-09-28 05:43:00
1:48 AM,55.4,55.4,100,30.09,2.5,West,3.5,-,N/A,,Clear,280,2013-09-28 05:48:00
1:53 AM,57.2,57.2,100,30.09,8.0,West,3.5,-,N/A,,Clear,280,2013-09-28 05:53:00
1:58 AM,57.4,57.0,99,30.10,10.0,West,3.5,-,N/A,,Clear,270,2013-09-28 05:58:00
2:33 AM,57.2,57.2,100,30.09,6.0,NW,1.2,-,N/A,,Clear,320,2013-09-28 06:33:00
2:38 AM,57.2,57.2,100,30.09,2.5,West,2.3,-,N/A,,Clear,280,2013-09-28 06:38:00
2:43 AM,57.2,57.2,100,30.09,2.5,West,2.3,-,N/A,,Clear,280,2013-09-28 06:43:00
2:48 AM,57.2,55.4,94,30.09,3.0,West,2.3,-,N/A,,Clear,280,2013-09-28 06:48:00
2:53 AM,57.2,57.2,100,30.09,4.0,West,2.3,-,N/A,,Clear,280,2013-09-28 06:53:00
2:58 AM,57.0,56.7,99,30.10,5.0,West,2.3,-,N/A,,Clear,270,2013-09-28 06:58:00
3:03 AM,55.4,55.4,100,30.09,3.0,West,2.3,-,N/A,,Clear,260,2013-09-28 07:03:00
3:08 AM,55.4,55.4,100,30.09,4.0,West,3.5,-,N/A,,Clear,260,2013-09-28 07:08:00
3:13 AM,55.4,55.4,100,30.09,10.0,West,3.5,-,N/A,,Clear,280,2013-09-28 07:13:00
3:53 AM,55.4,55.4,100,30.09,7.0,West,1.2,-,N/A,,Clear,270,2013-09-28 07:53:00
3:58 AM,55.8,55.6,99,30.10,3.0,West,2.3,-,N/A,,Clear,270,2013-09-28 07:58:00
4:03 AM,55.4,55.4,100,30.09,1.5,West,2.3,-,N/A,,Clear,270,2013-09-28 08:03:00
4:08 AM,55.4,55.4,100,30.09,1.2,West,2.3,-,N/A,,Clear,270,2013-09-28 08:08:00
4:23 AM,55.4,55.4,100,30.09,2.5,West,2.3,-,N/A,,Clear,280,2013-09-28 08:23:00
4:28 AM,55.4,55.4,100,30.09,6.0,West,2.3,-,N/A,,Clear,270,2013-09-28 08:28:00
4:33 AM,55.4,55.4,100,30.09,9.0,Calm,Calm,-,N/A,,Clear,0,2013-09-28 08:33:00
4:38 AM,55.4,53.6,94,30.09,1.5,Calm,Calm,-,N/A,,Clear,0,2013-09-28 08:38:00
4:43 AM,55.4,53.6,94,30.09,1.0,Calm,Calm,-,N/A,,Clear,0,2013-09-28 08:43:00
4:48 AM,53.6,53.6,100,30.09,0.8,WSW,1.2,-,N/A,,Clear,240,2013-09-28 08:48:00
4:53 AM,53.6,53.6,100,30.10,0.8,West,2.3,-,N/A,,Clear,260,2013-09-28 08:53:00
4:58 AM,53.6,53.6,100,30.11,1.2,Calm,Calm,-,N/A,,Clear,0,2013-09-28 08:58:00
5:03 AM,53.6,53.6,100,30.10,2.0,West,1.2,-,N/A,,Clear,280,2013-09-28 09:03:00
5:13 AM,55.4,53.6,94,30.10,1.8,Calm,Calm,-,N/A,,Clear,0,2013-09-28 09:13:00
5:23 AM,53.6,53.6,100,30.10,1.5,West,2.3,-,N/A,,Clear,270,2013-09-28 09:23:00
5:28 AM,55.4,55.4,100,30.10,2.0,WNW,2.3,-,N/A,,Clear,290,2013-09-28 09:28:00
5:33 AM,55.4,53.6,94,30.10,1.2,NW,1.2,-,N/A,,Clear,310,2013-09-28 09:33:00
5:38 AM,55.4,53.6,94,30.10,1.0,West,2.3,-,N/A,,Clear,270,2013-09-28 09:38:00
5:43 AM,55.4,53.6,94,30.10,2.0,NW,2.3,-,N/A,,Clear,310,2013-09-28 09:43:00
5:48 AM,55.4,55.4,100,30.10,3.0,North,1.2,-,N/A,,Clear,360,2013-09-28 09:48:00
5:53 AM,55.4,53.6,94,30.10,6.0,Calm,Calm,-,N/A,,Clear,0,2013-09-28 09:53:00
5:58 AM,54.0,53.8,99,30.11,10.0,Calm,Calm,-,N/A,,Clear,0,2013-09-28 09:58:00
6:13 AM,53.6,53.6,100,30.11,7.0,West,3.5,-,N/A,,Clear,270,2013-09-28 10:13:00
6:23 AM,53.6,53.6,100,30.11,10.0,WNW,3.5,-,N/A,,Clear,290,2013-09-28 10:23:00
6:58 AM,54.3,54.0,99,30.13,10.0,WNW,2.3,-,N/A,,Clear,290,2013-09-28 10:58:00
7:58 AM,54.0,53.6,99,30.16,10.0,NW,2.3,-,N/A,,Clear,310,2013-09-28 11:58:00
8:58 AM,60.6,57.2,88,30.17,10.0,ENE,3.5,-,N/A,,Clear,60,2013-09-28 12:58:00
9:58 AM,66.4,57.4,73,30.18,10.0,East,6.9,-,N/A,,Clear,90,2013-09-28 13:58:00
10:58 AM,70.7,57.7,63,30.19,10.0,East,5.8,-,N/A,,Clear,80,2013-09-28 14:58:00
11:58 AM,74.7,55.8,52,30.18,10.0,East,9.2,-,N/A,,Clear,90,2013-09-28 15:58:00
12:58 PM,76.6,55.2,47,30.16,10.0,Variable,6.9,-,N/A,,Clear,0,2013-09-28 16:58:00
1:58 PM,77.9,55.2,45,30.14,10.0,East,11.5,-,N/A,,Clear,80,2013-09-28 17:58:00
2:58 PM,79.3,55.8,44,30.11,10.0,NE,8.1,-,N/A,,Clear,50,2013-09-28 18:58:00
3:58 PM,79.5,55.4,43,30.09,10.0,Variable,5.8,-,N/A,,Clear,0,2013-09-28 19:58:00
4:58 PM,80.2,57.4,45,30.09,10.0,NNE,8.1,-,N/A,,Clear,20,2013-09-28 20:58:00
5:58 PM,78.6,57.4,48,30.08,10.0,ENE,6.9,-,N/A,,Clear,70,2013-09-28 21:58:00
6:58 PM,75.0,57.9,55,30.08,10.0,NE,4.6,-,N/A,,Clear,40,2013-09-28 22:58:00
7:58 PM,71.2,57.4,61,30.09,10.0,East,5.8,-,N/A,,Clear,80,2013-09-28 23:58:00
8:58 PM,69.4,57.2,65,30.10,10.0,East,3.5,-,N/A,,Clear,80,2013-09-29 00:58:00
9:58 PM,67.8,56.7,67,30.12,10.0,Variable,3.5,-,N/A,,Clear,0,2013-09-29 01:58:00
10:58 PM,64.4,56.8,76,30.12,10.0,Variable,1.2,-,N/A,,Clear,0,2013-09-29 02:58:00
11:58 PM,58.3,57.6,97,30.13,10.0,Calm,Calm,-,N/A,,Clear,0,2013-09-29 03:58:00